Find Yaogan 30 hao 04 zu 02 xing

NORAD ID: 43171 Int'l Des: 2018-011 Owner: ZLZB Country: CN Constellation: yaogan operational
LEOCIRCULAR

实时位置

正在加载3D地球...

关于 Yaogan 30 hao 04 zu 02 xing

正在加载描述...

即将过境

Passes for default location (London). Set your location on the main map for personalized predictions.

高度历史

Loading altitude history...

两行轨道根数

1 43171U 18011C 26107.43347650 .00001356 00000-0 10247-3 0 9997
2 43171 34.9943 160.9274 0001493 182.4359 177.6342 15.02416197449078
Epoch: Apr 17, 2026 • Age: 8 hours

当前状态

高度 568.5 km
速度 7.58 km/s
星下点 -35.14°S, 47.73°W
发射日期 Jan 25, 2018
运行时间 8.2 years
类型 military

技术详情

分类 Payload
质量 500.00 kg
干质量 500.00 kg
总质量 500.00 kg
长度 0.50 m
直径 0.50 m
跨度 1.00 m
形状 Box + 2 Pan
制造商 SECM
阶段状态 In Orbit
所有者/国家 ZLZB/CN

Most Searched